Weather History for Fulton, NY

Change the Weather History Date:

Saturday, September 21, 2013

  Actual Average (KSYR) Record (KSYR)
Temperature  
Mean Temperature 64 °F 60 °F  
Max Temperature 72 °F 70 °F 91 °F (1931)
Min Temperature 57 °F 50 °F 35 °F (1929)
Degree Days  
Heating Degree Days 1 6  
Month to date heating degree days 71  
Since 1 July heating degree days 97  
Cooling Degree Days 0 1  
Month to date cooling degree days 46  
Year to date cooling degree days 559  
Growing Degree Days 14 (Base 50)    
Moisture  
Dew Point 59 °F    
Average Humidity 86    
Maximum Humidity 96    
Minimum Humidity 65    
Precipitation  
Precipitation 0.57 in 0.13 in 1.40 in (1913)
Month to date precipitation 2.54  
Year to date precipitation 27.13  
Snow  
Snow 0.00 in 0.00 in 0.00 in (2002)
Month to date snowfall 0.0  
Since 1 July snowfall 0.0  
Since 1 September snowfall 0.0  
Snow Depth -    
Sea Level Pressure  
Sea Level Pressure 29.67 in    
Wind  
Wind Speed 7 mph (SW)    
Max Wind Speed 17 mph    
Max Gust Speed 30 mph    
Visibility 7 miles    
Events Rain    
T = Trace of Precipitation, MM = Missing Value Source: NWS Daily Summary

Daily Weather History Graph

Daily Weather History Graph

Search for Another Location

Airport:

Trip Planner

Search our weather history database for the weather conditions in past years. The results will help you decide how hot, cold, wet, or windy it might be!

Date:

Astronomy

Sep. 21, 2013 Rise Set
Actual Time 6:51 AM EDT 7:04 PM EDT
Civil Twilight 6:23 AM EDT 7:32 PM EDT
Nautical Twilight 5:49 AM EDT 8:06 PM EDT
Astronomical Twilight 5:15 AM EDT 8:40 PM EDT
Moon 8:07 PM EDT (9/21) 9:13 AM EDT (9/21)
Length of Visible Light 13h 09m
Length of Day
12h 12m
Waning Gibbous, 94% of the Moon is Illuminated
Sep 21
Waning Gibbous
Sep 26
Last Quarter
Oct 4
New
Oct 11
First Quarter
Oct 18
Full

Hourly Weather History & Observations

Time (EDT) Temp. Dew Point Humidity Pressure Visibility Wind Dir Wind Speed Gust Speed Precip Events Conditions
12:54 AM 68.0 °F 55.9 °F 65% 29.81 in 10.0 mi Variable 4.6 mph - N/A   Clear
1:54 AM 66.9 °F 55.9 °F 68% 29.80 in 10.0 mi Calm Calm - N/A   Clear
2:54 AM 66.0 °F 57.0 °F 73% 29.78 in 10.0 mi Variable 3.5 mph - N/A   Clear
3:54 AM 66.0 °F 57.0 °F 73% 29.77 in 10.0 mi Variable 4.6 mph - N/A   Mostly Cloudy
4:54 AM 64.9 °F 57.0 °F 75% 29.75 in 10.0 mi SE 5.8 mph - N/A   Overcast
5:54 AM 64.9 °F 57.0 °F 75% 29.74 in 10.0 mi SE 3.5 mph - N/A   Overcast
6:54 AM 64.0 °F 57.0 °F 78% 29.74 in 10.0 mi SE 5.8 mph - N/A   Mostly Cloudy
7:54 AM 66.0 °F 57.9 °F 75% 29.72 in 10.0 mi Variable 4.6 mph - N/A   Overcast
8:54 AM 66.9 °F 59.0 °F 76% 29.70 in 10.0 mi Variable 5.8 mph - N/A   Overcast
9:54 AM 68.0 °F 60.1 °F 76% 29.69 in 10.0 mi South 5.8 mph - N/A   Overcast
10:54 AM 71.1 °F 61.0 °F 70% 29.66 in 10.0 mi SSE 10.4 mph 23.0 mph N/A   Mostly Cloudy
11:11 AM 71.6 °F 60.8 °F 69% 29.66 in 10.0 mi South 11.5 mph 24.2 mph N/A   Overcast
11:33 AM 71.6 °F 60.8 °F 69% 29.66 in 10.0 mi South 16.1 mph 25.3 mph N/A   Overcast
11:54 AM 70.0 °F 60.1 °F 71% 29.65 in 10.0 mi South 15.0 mph 24.2 mph N/A   Overcast
12:54 PM 69.1 °F 61.0 °F 75% 29.63 in 10.0 mi South 9.2 mph 18.4 mph 0.02 in   Overcast
1:33 PM 69.8 °F 60.8 °F 73% 29.63 in 10.0 mi South 11.5 mph 23.0 mph N/A   Overcast
1:54 PM 69.1 °F 60.1 °F 73% 29.62 in 10.0 mi South 10.4 mph 19.6 mph N/A   Overcast
2:47 PM 64.4 °F 60.8 °F 88% 29.64 in 2.5 mi West 12.7 mph - 0.03 in Rain Light Rain
2:52 PM 62.6 °F 60.8 °F 94% 29.64 in 3.0 mi West 10.4 mph - 0.05 in Rain Light Rain
2:54 PM 63.0 °F 61.0 °F 93% 29.64 in 2.5 mi West 10.4 mph - 0.06 in Rain Rain
2:58 PM 62.6 °F 60.8 °F 94% 29.64 in 1.8 mi West 11.5 mph - 0.02 in Rain Heavy Rain
3:08 PM 62.6 °F 60.8 °F 94% 29.64 in 2.0 mi West 9.2 mph - 0.05 in Rain Rain
3:13 PM 62.6 °F 60.8 °F 94% 29.64 in 3.0 mi West 8.1 mph - 0.07 in Rain Rain
3:29 PM 62.6 °F 60.8 °F 94% 29.64 in 5.0 mi WSW 6.9 mph - 0.09 in Rain Light Rain
3:39 PM 62.6 °F 60.8 °F 94% 29.64 in 2.5 mi West 8.1 mph - 0.11 in Rain Rain
3:49 PM 62.6 °F 60.8 °F 94% 29.64 in 3.0 mi WNW 10.4 mph - 0.13 in Rain Rain
3:54 PM 62.1 °F 60.1 °F 93% 29.64 in 4.0 mi West 6.9 mph - 0.13 in Rain Light Rain
4:05 PM 62.6 °F 60.8 °F 94% 29.65 in 3.0 mi West 6.9 mph - 0.02 in Rain Rain
4:14 PM 62.6 °F 60.8 °F 94% 29.64 in 3.0 mi WNW 6.9 mph - 0.03 in Rain Light Rain
4:25 PM 62.6 °F 60.8 °F 94% 29.64 in 5.0 mi West 5.8 mph - 0.04 in Rain Light Rain
4:35 PM 62.6 °F 60.8 °F 94% 29.64 in 3.0 mi West 4.6 mph - 0.05 in Rain Rain
4:54 PM 62.1 °F 59.0 °F 90% 29.64 in 2.5 mi WNW 8.1 mph 18.4 mph 0.10 in Rain Rain
5:02 PM 62.6 °F 59.0 °F 88% 29.64 in 5.0 mi WNW 9.2 mph - 0.00 in Rain Light Rain
5:54 PM 61.0 °F 59.0 °F 93% 29.65 in 2.5 mi WNW 6.9 mph - 0.08 in Rain Rain
6:03 PM 60.8 °F 59.0 °F 94% 29.66 in 2.5 mi WNW 5.8 mph - 0.01 in Rain Rain
6:17 PM 60.8 °F 57.2 °F 88% 29.65 in 3.0 mi West 4.6 mph - 0.03 in Rain Light Rain
6:54 PM 60.1 °F 57.9 °F 93% 29.65 in 5.0 mi SW 4.6 mph - 0.06 in Rain Light Rain
7:37 PM 60.8 °F 59.0 °F 94% 29.64 in 7.0 mi South 4.6 mph - 0.05 in Rain Light Rain
7:54 PM 60.1 °F 57.9 °F 93% 29.64 in 8.0 mi Variable 3.5 mph - 0.06 in Rain Light Rain
8:54 PM 59.0 °F 57.9 °F 96% 29.65 in 10.0 mi South 4.6 mph - 0.03 in Rain Light Rain
9:20 PM 59.0 °F 57.2 °F 94% 29.65 in 10.0 mi South 5.8 mph - 0.00 in Rain Light Rain
9:29 PM 59.0 °F 57.2 °F 94% 29.65 in 10.0 mi South 5.8 mph - 0.00 in   Overcast
9:54 PM 59.0 °F 57.9 °F 96% 29.65 in 10.0 mi SSW 5.8 mph - 0.00 in   Overcast
10:35 PM 59.0 °F 57.2 °F 94% 29.66 in 10.0 mi South 5.8 mph - 0.00 in Rain Light Rain
10:54 PM 59.0 °F 57.0 °F 93% 29.65 in 9.0 mi South 5.8 mph - 0.00 in Rain Light Rain
11:18 PM 59.0 °F 57.2 °F 94% 29.65 in 7.0 mi South 6.9 mph - 0.02 in Rain Light Rain
11:37 PM 59.0 °F 55.4 °F 88% 29.67 in 8.0 mi WNW 17.3 mph 29.9 mph 0.03 in Rain Light Rain
11:50 PM 57.2 °F 55.4 °F 94% 29.68 in 9.0 mi WNW 12.7 mph 25.3 mph 0.03 in Rain Light Rain
11:54 PM 57.0 °F 54.0 °F 89% 29.68 in 9.0 mi WNW 13.8 mph 24.2 mph 0.03 in Rain Light Rain